Regional Weather Roundup
Issued by NWS

Home | Current Version | Previous Version | Graphics & Text | Print | Product List | Glossary On
Versions: 1 2 3 4 5 6 7 8 9 10 11 12 13 14 15 16 17 18 19 20 21 22 23 24 25 26 27 28 29 30 31 32 33 34 35 36 37 38 39 40 41 42 43 44 45 46 47 48 49 50
996
ASUS43 KMPX 251210
RWRMN
WEATHER ROUNDUP FOR MINNESOTA
NATIONAL WEATHER SERVICE TWIN CITIES/CHANHASSEN MN
700 AM CDT TUE JUL 25 2017


NOTE: "FAIR" INDICATES FEW OR NO CLOUDS BELOW 12,000 FEET WITH NO
SIGNIFICANT WEATHER AND/OR OBSTRUCTIONS TO VISIBILITY. N/A MEANS
CURRENT SKY AND/OR WEATHER CONDITIONS ARE NOT AVAILABLE.

MNZ060>063-068>070-251300-
   Twin Cities Metro

CITY           SKY/WX    TMP DP  RH WIND       PRES   REMARKS
TWIN CITIES    CLOUDY    68  61  78 S13       30.04S
6HR MIN TEMP:  67; 6HR MAX TEMP:  69; 6HR PCP: TRACE;

ST PAUL        CLOUDY    67  62  84 SE14      30.05S
CRYSTAL        CLOUDY    68  59  73 SE9       30.02R
BLAINE         CLOUDY    70  61  73 SE8       30.04R
LAKEVILLE      TSTM      63  63 100 S15G25    30.03S
EDEN PRAIRIE   CLOUDY    67  64  90 SE7       30.02S
6HR MIN TEMP:  67; 6HR MAX TEMP:  69; 6HR PCP:  0.02;

SOUTH ST PAUL  CLOUDY    67  60  80 S9        30.04S
LAKE ELMO      FAIR      64  61  88 S8        30.07R
$$
MNZ001>005-007-008-013>017-022>024-027-028-251300-
   Northwest Minnesota

CITY           SKY/WX    TMP DP  RH WIND       PRES   REMARKS
BEMIDJI        CLOUDY    63  61  94 SE9       29.93S
HALLOCK        CLOUDY    66  64  94 S8        29.84R
ROSEAU         CLOUDY    64  59  82 S8        29.87S
WARROAD        CLOUDY    64  61  88 S7        29.89R
THIEF RVR FALL MOCLDY    63  61  93 SE8       29.90R
CROOKSTON      PTCLDY    64  63  94 S3        29.89S
FOSSTON        MOCLDY    64  61  88 S8        29.92R
DETROIT LAKES  CLOUDY    64  63  94 SE9       29.91R
MOORHEAD       CLOUDY    68  63  83 SE5       29.87S
PARK RAPIDS    MOCLDY    66  62  87 SE15      29.93F
MAHNOMEN       FAIR      65  62  89 SE6       29.90R
$$
MNZ006-009>011-018-025>026-251300-
   North Central Minnesota

CITY           SKY/WX    TMP DP  RH WIND       PRES   REMARKS
BAUDETTE       CLOUDY    62  61  96 S5        29.91R
FLAG ISLAND    CLOUDY    68  64  88 S9        29.88S
INTL FALLS     CLOUDY    62  58  86 SE7       29.94F
6HR MIN TEMP:  57; 6HR MAX TEMP:  62;

WASKISH        PTSUNNY   64  61  88 SE3       29.93S
BIG FORK       CLOUDY    63  61  94 S3        29.97S
LONGVILLE      MOSUNNY   64  63  94 S10       29.96S
GRAND RAPIDS   SUNNY     59  58  96 SE6       30.01R
CRANE LAKE     PTSUNNY   59  57  94 CALM      30.01F FOG
ORR            CLOUDY    61  55  82 SE6       29.97F
COOK           CLOUDY    63  59  88 SE6       30.01F
WALKER         FAIR      64  61  90 SE7       29.94F
$$
MNZ012-019>021-037-251300-
   Northeast Minnesota

CITY           SKY/WX    TMP DP  RH WIND       PRES   REMARKS
DULUTH         MOSUNNY   59  58  96 SE7       30.04S
6HR MIN TEMP:  54; 6HR MAX TEMP:  59;

ELY            MOSUNNY   59  55  88 SE3       30.04F
HIBBING        MOSUNNY   56  56 100 SE5       30.01S
EVELETH        CLOUDY    58  55  90 CALM      30.03S
DULUTH HARBOR  CLOUDY    63  61  94 NE6       30.04S
TWO HARBORS    MOSUNNY   61  55  82 NE6       30.04S
SILVER BAY     CLOUDY    54  52  94 CALM      30.05F
GRAND MARAIS     N/A     58  52  80 NE3       30.08S
G MARAIS ARPRT CLOUDY    57  50  77 S3        30.11S
$$
MNZ029>031-032-039>041-046>048-054>057-064-251300-
   West Central Minnesota

CITY           SKY/WX    TMP DP  RH WIND       PRES   REMARKS
FERGUS FALLS   CLEAR     68  63  83 SE13      29.87S
WHEATON        CLEAR     66  63  88 SE12      29.88S
MORRIS         CLEAR     66  64  94 SE16      29.88F
ALEXANDRIA     PTCLDY    67  64  90 SE12      29.94S
ELBOW LAKE     FAIR      67  64  90 E13G18    29.89S
WADENA         PTCLDY    64  64 100 SE10      29.92F
GLENWOOD       CLEAR     66  64  94 SE13      29.94S
APPLETON       CLEAR     68  64  88 SE8       29.89S
BENSON         PTCLDY    68  63  83 S9        29.93R
ORTONVILLE     CLEAR     66  64  94 MISG      29.87F
MADISON        CLEAR     72  64  78 SE12G20   29.89S
WILLMAR        FAIR      66  66 100 SE13G22   29.95S
$$
MNZ033>034-036-042>043-049>051-058-059-251300-
   Central Minnesota

CITY           SKY/WX    TMP DP  RH WIND       PRES   REMARKS
ST CLOUD       MOCLDY    66  64  93 SE5       29.99R
6HR MIN TEMP:  65; 6HR MAX TEMP:  68; 6HR PCP:  0.02;

SAUK CENTRE    CLOUDY    66  64  93 SE10      29.94F
PAYNESVILLE    PTCLDY    67  64  90 SE14G23   29.95F THUNDER
AITKIN         SUNNY     66  61  82 S10G16    29.97F
PINE RIVER     SUNNY     66  63  88 S10       30.00R
BRAINERD       MOSUNNY   65  62  90 SE10      29.97S
STAPLES        PTCLDY    64  63  94 SE6G16    29.95F
LONG PRAIRIE   FAIR      64  63  94 E9        29.95F
LITTLE FALLS   CLOUDY    64  61  88 SE9       29.97F
LITCHFIELD     CLOUDY    68  66  94 SE14G25   29.97F THUNDER
BUFFALO        CLOUDY    67  62  82 SE10G17   30.01F
MAPLE LAKE     RAIN      67  64  92 S9G16     29.98F
HUTCHINSON     TSTM      67  65  93 SE12      30.00F
$$
MNZ037-044-045-052-053-251300-
   East Central Minnesota

CITY           SKY/WX    TMP DP  RH WIND       PRES   REMARKS
PRINCETON      CLOUDY    66  63  88 E8        30.00F
MORA           RAIN      64  59  82 S7        30.03F
CAMBRIDGE      LGT RAIN  66  59  77 SE3       30.02S
RUSH CITY      RAIN      64  61  90 SE5       30.04S
MOOSE LAKE     CLOUDY    63  59  88 CALM      30.01S
HINCKLEY       CLOUDY    64  63  94 SE8       30.03F
CLOQUET        CLOUDY    59  55  88 CALM      30.04S
MCGREGOR       CLOUDY    63  61  94 S8        30.00F
$$
MNZ071>073-080-081-089-090-097-098-251300-
   Southwest Minnesota

CITY           SKY/WX    TMP DP  RH WIND       PRES   REMARKS
MONTEVIDEO     PTCLDY    66  66 100 S12G17    29.91S
GRANITE FALLS  MOCLDY    69  65  89 SE9       29.94R
CANBY          CLEAR     67  64  88 CALM      29.90F
MARSHALL       PTCLDY    68  64  87 S15       29.91S
REDWOOD FALLS  LGT RAIN  67  64  90 SE25G36   29.92F FOG
OLIVIA         MOCLDY    66  64  94 SE16G24   29.93F
PIPESTONE      CLEAR     70  64  83 S17G23    29.94R
WINDOM         CLOUDY    66  63  88 SE16      29.98S
WORTHINGTON    CLOUDY    67  63  87 S17G24    29.97S
JACKSON        PTCLDY    64  63  94 S15G21    30.00S
TRACY          MOCLDY    68  65  90 S16       29.93F
SLAYTON        PTCLDY    65  62  89 S14       29.95S
$$
MNZ065>067-074>077-082>085-091>093-251300-
   South Central Minnesota

CITY           SKY/WX    TMP DP  RH WIND       PRES   REMARKS
NEW ULM        CLOUDY    66  63  88 SE12G18   30.00S
ST JAMES       CLOUDY    66  64  94 SE9       30.02R
FAIRMONT       PTCLDY    66  64  93 S17       30.01S
GLENCOE        CLOUDY    67  65  95 SE12      30.00F THUNDER
FARIBAULT      CLOUDY    64  61  88 E7        30.08R THUNDER
OWATONNA       CLOUDY    64  61  88 SE13      30.06F
WASECA         CLOUDY    63  59  88 SE9       30.06R
ALBERT LEA     MOCLDY    64  61  88 S13G18    30.06S
$$
MNZ078>079-086>088-094>096-251300-
   Southeast Minnesota

CITY           SKY/WX    TMP DP  RH WIND       PRES   REMARKS
ROCHESTER      CLOUDY    62  60  93 SE8       30.12R
6HR MIN TEMP:  60; 6HR MAX TEMP:  62;

RED WING       CLOUDY    66  59  77 SW8       30.06S
STANTON        TSTM      64  61  89 S15       30.04F
DODGE CENTER   LGT RAIN  63  61  94 E3        30.12R
WINONA         CLOUDY    63  59  88 SE3       30.13R
AUSTIN         LGT RAIN  63  61  94 S9        30.07S
PRESTON        CLOUDY    61  57  88 SE9       30.11F
$$
ABBREVIATIONS USED IN REMARKS
   TC - TEMPERATURES IN CELSIUS
  WCI - WIND CHILL INDEX
   HX - HEAT INDEX
  VSB - VISIBILITY
$$




USA.gov is the U.S. government's official web portal to all federal, state and local government web resources and services.